[[{"header":{"parameterUnit":"m.s-1","parameterCategory":1,"la1":30.2991,"la2":30.254,"lo1":-89.0895,"lo2":-89.0444,"dy":0.0017,"dx":0.0017,"nx":28,"ny":28,"refTime":"2025-05-28T09:00:00:Z","depth":0,"parameterNumber":2,"parameterNumberName":"U-component_of_WINDS"},"data":[0,0,0,0,0,0,0,0,0,0,0,0,0,0,0,0,0,0,0,0,0,0,0,0,0,0,0,0,0,0,0,0,0,0,0,0,0,0,0,0,0,0,0,0,0,0,0,0,0,0,0,0,0,0,0,0,0,0,-2.4843,-2.4843,0,-2.4889,-2.489,-2.489,-2.4824,-2.4822,-2.482,-2.4817,-2.4867,-2.4871,-2.4874,0,0,0,0,0,0,0,0,0,0,0,0,0,-2.4696,-2.4699,-2.4843,-2.4843,-2.4844,-2.4889,-2.489,-2.4891,-2.4825,-2.4822,-2.4819,-2.4816,-2.4866,-2.487,-2.4875,0,0,0,0,0,0,0,0,0,0,0,0,0,-2.4753,-2.47,-2.4843,-2.4816,-2.4814,-2.4889,-2.489,-2.4891,-2.4825,-2.4822,-2.4818,-2.4815,-2.4865,-2.487,-2.4875,-2.4978,0,0,-2.4891,-2.4894,0,0,0,0,0,0,0,0,-2.475,-2.4759,-2.482,-2.4818,-2.4816,-2.4847,-2.4857,-2.492,-2.4826,-2.4821,-2.4817,-2.4813,-2.4864,-2.4869,-2.4885,-2.4981,-2.4983,-2.4892,-2.4895,-2.4897,-2.4899,0,0,0,0,0,0,0,-2.4746,-2.4756,-2.4861,-2.4821,-2.4819,-2.4802,-2.4806,-2.4868,-2.4862,-2.4821,-2.4817,-2.4823,-2.4862,-2.488,-2.4886,-2.4984,-2.4892,-2.4896,-2.49,-2.4902,-2.5163,-2.5167,0,0,0,0,0,0,-2.4745,-2.4754,-2.486,-2.4863,-2.4774,-2.4808,-2.4812,-2.4841,-2.4861,-2.486,-2.4826,-2.482,-2.4873,-2.488,-2.4888,-2.5008,-2.4897,-2.4902,-2.4905,-2.5159,-2.5164,-2.5168,0,0,0,0,0,0,-2.4743,-2.4756,-2.4858,-2.4807,-2.4819,-2.4814,-2.4847,-2.4844,-2.4862,-2.4864,-2.4863,-2.4846,-2.4871,-2.488,-2.4955,-2.5009,-2.4904,-2.4909,-2.5155,-2.5161,-2.5166,-2.525,0,0,0,0,0,0,-2.4739,-2.4755,-2.4794,-2.4808,-2.4822,-2.4925,-2.485,-2.4847,-2.4871,-2.4863,-2.4883,-2.4883,-2.4869,-2.4948,-2.4961,-2.5014,-2.4913,-2.515,-2.5158,-2.5164,-2.5243,-2.5258,-2.5271,0,0,0,0,0,-2.4734,-2.4817,-2.4797,-2.481,-2.4871,-2.4928,-2.4936,-2.4918,-2.4876,-2.4915,-2.4916,-2.4882,-2.5001,-2.4956,-2.497,-2.5026,-2.5147,-2.5155,-2.5164,-2.5236,-2.5255,-2.5271,0,0,0,0,0,0,-2.4811,-2.4819,-2.4796,-2.4886,-2.4907,-2.4917,-2.4966,-2.4939,-2.4973,-2.4964,-2.494,-2.4945,-2.5025,-2.5033,-2.4983,-2.5125,-2.5067,-2.5078,-2.5117,-2.5135,-2.5149,-2.5145,-2.4918,0,0,0,0,0,-2.4838,-2.4884,-2.4889,-2.4968,-2.498,-2.4971,-2.4996,-2.498,-2.5001,-2.5009,-2.5016,-2.5038,-2.508,-2.5108,-2.5147,-2.5244,-2.5246,-2.5289,-2.5303,-2.5315,-2.5325,-2.5374,-2.5392,-2.5196,-2.5196,-2.5196,0,0,-2.4896,-2.4906,-2.4936,-2.4984,-2.4998,-2.5046,-2.4979,-2.5033,-2.5068,-2.5018,-2.5088,-2.5094,-2.5117,-2.5203,-2.5241,-2.5212,-2.5379,-2.5325,-2.5335,-2.5338,-2.5384,-2.5403,-2.542,-2.5202,-2.5201,-2.52,0,0,-2.5024,-2.5037,-2.5103,-2.5118,-2.514,-2.5134,-2.515,-2.5164,-2.5165,-2.5235,-2.5197,-2.5239,-2.5313,-2.5329,-2.5348,-2.548,-2.5449,-2.5494,-2.5568,-2.5616,-2.5632,-2.5645,-2.5691,-2.5707,-2.5504,-2.5504,-2.5504,0,-2.5093,-2.5163,-2.5141,-2.5197,-2.5218,-2.5173,-2.524,-2.5256,-2.529,-2.5305,-2.5272,-2.5361,-2.5374,-2.5461,-2.5493,-2.5511,-2.5527,-2.5491,-2.5631,-2.5645,-2.5657,-2.57,-2.5717,-2.5509,-2.5509,-2.5508,-2.5508,0,-2.5246,-2.5295,-2.5346,-2.5378,-2.5405,-2.5466,-2.5453,-2.5483,-2.5464,-2.5461,-2.5532,-2.5545,-2.5585,-2.5605,-2.5588,-2.569,-2.5671,-2.5635,-2.5575,-2.5681,-2.5721,-2.5737,-2.5517,-2.5515,-2.5513,-2.5512,0,0,-2.5426,-2.5443,-2.5462,-2.5474,-2.5494,-2.5532,-2.559,-2.5627,-2.5653,-2.5678,-2.5725,-2.5787,-2.5753,-2.5774,-2.5758,-2.5801,-2.5902,-2.5759,-2.5759,-2.5784,-2.6013,-2.6038,-2.6058,-2.5882,-2.5885,-2.5888,-2.601,0,-2.5552,-2.5652,-2.5633,-2.573,-2.5774,-2.5731,-2.5782,-2.5799,-2.5798,-2.5835,-2.5833,-2.5876,-2.5829,-2.5841,-2.5882,-2.5881,-2.5948,-2.5873,-2.5925,-2.5927,-2.5919,-2.6079,-2.6107,-2.6222,-2.6026,-2.6028,-2.603,0,-2.5714,-2.5742,-2.5844,-2.5854,-2.5872,-2.5917,-2.5949,-2.5985,-2.6003,-2.5999,-2.6021,-2.5997,-2.6054,-2.5994,-2.6071,-2.6021,-2.6041,-2.6044,-2.6048,-2.6051,-2.5984,-2.6085,-2.6258,-2.6275,-2.6055,-2.6053,-2.6051,0,-2.5832,-2.5896,-2.5964,-2.5977,-2.5991,-2.6024,-2.6031,-2.6046,-2.6069,-2.6097,-2.6111,-2.6146,-2.6164,-2.6191,-2.6176,-2.6135,-2.6256,-2.6196,-2.6253,-2.6253,-2.628,-2.6278,-2.6457,-2.6296,-2.6296,-2.6295,-2.6295,0,-2.5975,-2.6038,-2.6017,-2.6059,-2.6128,-2.6105,-2.6174,-2.6177,-2.6189,-2.6231,-2.6196,-2.6236,-2.6214,-2.6252,-2.6241,-2.6305,-2.6315,-2.6312,-2.6308,-2.6314,-2.6314,-2.6326,-2.6317,-2.63,-2.6299,-2.6298,-2.6297,0,-2.6119,-2.6107,-2.6178,-2.6185,-2.6188,-2.6239,-2.6244,-2.6283,-2.6278,-2.633,-2.6341,-2.6333,-2.6375,-2.6363,-2.641,-2.6402,-2.6483,-2.647,-2.6476,-2.6473,-2.653,-2.6524,-2.6722,-2.6745,-2.6571,-2.6572,-2.6574,0,-2.621,-2.6257,-2.6268,-2.6293,-2.6302,-2.6343,-2.6365,-2.6344,-2.6369,-2.6391,-2.6427,-2.6466,-2.6496,-2.6565,-2.6563,-2.6598,-2.6584,-2.6651,-2.6589,-2.6593,-2.6582,-2.6579,-2.6583,-2.6663,-2.6665,-2.6667,-2.6668,0,-2.6373,-2.6364,-2.6397,-2.6428,-2.6456,-2.6479,-2.65,-2.6522,-2.6502,-2.6532,-2.6573,-2.6596,-2.6642,-2.668,-2.6711,-2.6719,-2.669,-2.6687,-2.6702,-2.6708,-2.6709,-2.6707,-2.6508,-2.6683,-2.6681,-2.668,-2.6679,-2.6679,-2.6492,-2.653,-2.6543,-2.6581,-2.6594,-2.6613,-2.6649,-2.6647,-2.6682,-2.6716,-2.6702,-2.6749,-2.6764,-2.6802,-2.6814,-2.685,-2.6825,-2.6847,-2.6852,-2.6857,-2.6863,-2.6704,-2.6856,-2.6856,-2.6855,-2.6855,-2.6855,0,-2.665,-2.6656,-2.6691,-2.6719,-2.6749,-2.6718,-2.6738,-2.6765,-2.6807,-2.6823,-2.6852,-2.6899,-2.6935,-2.6936,-2.697,-2.6998,-2.6986,-2.7008,-2.7005,-2.7006,-2.6885,-2.6868,-2.7017,-2.7017,-2.7017,-2.7017,-2.7017,-2.7017,-2.6736,-2.6799,-2.6792,-2.6861,-2.6866,-2.6911,-2.6925,-2.6942,-2.6954,-2.7008,-2.7037,-2.7037,-2.7046,-2.708,-2.7112,-2.7111,-2.7124,-2.7151,-2.7145,-2.7032,-2.7015,-2.7,-2.6983,-2.7154,-2.7154,-2.7262,-2.7263,-2.7264]},{"header":{"parameterUnit":"m.s-1","parameterCategory":1,"la1":30.2991,"la2":30.254,"lo1":-89.0895,"lo2":-89.0444,"dy":0.0017,"dx":0.0017,"nx":28,"ny":28,"refTime":"2025-05-28T09:00:00:Z","depth":0,"parameterNumber":3,"parameterNumberName":"V-component_of_WINDS"},"data":[0,0,0,0,0,0,0,0,0,0,0,0,0,0,0,0,0,0,0,0,0,0,0,0,0,0,0,0,0,0,0,0,0,0,0,0,0,0,0,0,0,0,0,0,0,0,0,0,0,0,0,0,0,0,0,0,0,0,-1.8818,-1.8818,0,-1.8791,-1.8791,-1.8791,-1.8744,-1.8743,-1.8743,-1.8742,-1.8713,-1.8713,-1.8713,0,0,0,0,0,0,0,0,0,0,0,0,0,-1.8826,-1.8827,-1.8818,-1.8818,-1.8818,-1.8791,-1.8791,-1.8791,-1.8745,-1.8743,-1.8742,-1.8741,-1.8713,-1.8713,-1.8713,0,0,0,0,0,0,0,0,0,0,0,0,0,-1.8814,-1.8827,-1.8818,-1.8792,-1.8789,-1.8791,-1.8791,-1.8791,-1.8745,-1.8743,-1.8742,-1.8741,-1.8713,-1.8713,-1.8713,-1.8739,0,0,-1.8713,-1.8713,0,0,0,0,0,0,0,0,-1.8814,-1.8813,-1.8796,-1.8793,-1.879,-1.877,-1.8783,-1.8773,-1.8745,-1.8761,-1.8742,-1.874,-1.8733,-1.8731,-1.8729,-1.8738,-1.8736,-1.8713,-1.8713,-1.8713,-1.8713,0,0,0,0,0,0,0,-1.8815,-1.8814,-1.8808,-1.8796,-1.8792,-1.878,-1.8776,-1.8781,-1.8755,-1.876,-1.8757,-1.8754,-1.8731,-1.8729,-1.8728,-1.8736,-1.8713,-1.8713,-1.8713,-1.8713,-1.8761,-1.8762,0,0,0,0,0,0,-1.8821,-1.8815,-1.8808,-1.8807,-1.88,-1.8781,-1.8777,-1.8778,-1.8754,-1.875,-1.8755,-1.8752,-1.8729,-1.8728,-1.8727,-1.8753,-1.8713,-1.8713,-1.8713,-1.8759,-1.8761,-1.8762,0,0,0,0,0,0,-1.8821,-1.882,-1.881,-1.881,-1.8808,-1.8782,-1.8783,-1.8778,-1.8776,-1.8751,-1.8746,-1.8758,-1.8728,-1.8726,-1.8735,-1.8751,-1.8713,-1.8713,-1.8758,-1.876,-1.8762,-1.8808,0,0,0,0,0,0,-1.8821,-1.8821,-1.8832,-1.8811,-1.8808,-1.882,-1.8784,-1.8778,-1.8776,-1.8772,-1.8752,-1.8748,-1.8727,-1.8736,-1.8735,-1.8751,-1.8713,-1.8756,-1.8759,-1.8761,-1.8805,-1.8811,-1.8816,0,0,0,0,0,-1.8822,-1.8846,-1.8832,-1.8832,-1.8821,-1.8821,-1.882,-1.8796,-1.8778,-1.8787,-1.8771,-1.8748,-1.875,-1.8737,-1.8736,-1.8752,-1.8755,-1.8758,-1.8761,-1.8802,-1.881,-1.8816,0,0,0,0,0,0,-1.887,-1.8843,-1.8828,-1.8846,-1.8836,-1.8814,-1.8825,-1.8805,-1.88,-1.8796,-1.8766,-1.8762,-1.8774,-1.8764,-1.875,-1.8774,-1.8749,-1.8752,-1.878,-1.8787,-1.8793,-1.8795,-1.8713,0,0,0,0,0,-1.8883,-1.8886,-1.8862,-1.8881,-1.8877,-1.8852,-1.8851,-1.8833,-1.8822,-1.8817,-1.8802,-1.8791,-1.8788,-1.8787,-1.8784,-1.8803,-1.8796,-1.8813,-1.8819,-1.8824,-1.8826,-1.8832,-1.8838,-1.8771,-1.8771,-1.8771,0,0,-1.8909,-1.8895,-1.8899,-1.889,-1.888,-1.8883,-1.8849,-1.8854,-1.8855,-1.8818,-1.8825,-1.8813,-1.8798,-1.8811,-1.8816,-1.8803,-1.8843,-1.8827,-1.8831,-1.8831,-1.8835,-1.8842,-1.8847,-1.8773,-1.8773,-1.8773,0,0,-1.8958,-1.8949,-1.8962,-1.8952,-1.8938,-1.8921,-1.8924,-1.8903,-1.8894,-1.89,-1.8872,-1.8872,-1.8869,-1.8859,-1.8854,-1.8895,-1.8873,-1.8895,-1.8925,-1.8931,-1.8936,-1.8941,-1.8953,-1.8958,-1.8898,-1.8898,-1.8898,0,-1.8993,-1.8997,-1.8971,-1.8977,-1.8972,-1.8939,-1.895,-1.8942,-1.8927,-1.8924,-1.891,-1.8903,-1.8892,-1.89,-1.891,-1.8908,-1.8908,-1.8897,-1.8938,-1.8942,-1.8946,-1.8957,-1.8962,-1.89,-1.89,-1.89,-1.89,0,-1.9038,-1.9041,-1.9053,-1.9039,-1.9036,-1.9045,-1.9018,-1.9018,-1.9,-1.8984,-1.8989,-1.8973,-1.8964,-1.8965,-1.8948,-1.8971,-1.8962,-1.8944,-1.8917,-1.8955,-1.8965,-1.8969,-1.8904,-1.8903,-1.8902,-1.8902,0,0,-1.9118,-1.9088,-1.9092,-1.9084,-1.9064,-1.9065,-1.9071,-1.9062,-1.9061,-1.9051,-1.9054,-1.9051,-1.9032,-1.9026,-1.9007,-1.9013,-1.9043,-1.8992,-1.8991,-1.9,-1.9063,-1.9076,-1.9082,-1.9029,-1.9029,-1.903,-1.9063,0,-1.9161,-1.9171,-1.9146,-1.9161,-1.9161,-1.9128,-1.9132,-1.912,-1.9104,-1.9101,-1.9084,-1.9081,-1.9058,-1.9053,-1.9057,-1.9039,-1.9055,-1.9036,-1.9029,-1.9029,-1.9032,-1.9087,-1.9102,-1.9134,-1.9067,-1.9068,-1.9068,0,-1.9214,-1.9205,-1.922,-1.9196,-1.9195,-1.92,-1.9188,-1.9187,-1.917,-1.9158,-1.915,-1.9127,-1.9129,-1.9105,-1.9106,-1.9093,-1.9089,-1.9079,-1.9079,-1.9077,-1.905,-1.9084,-1.9145,-1.9149,-1.9075,-1.9074,-1.9074,0,-1.9267,-1.926,-1.9266,-1.9261,-1.9234,-1.9238,-1.9226,-1.9209,-1.9204,-1.9194,-1.919,-1.918,-1.9174,-1.9166,-1.914,-1.9125,-1.9143,-1.9117,-1.9131,-1.9132,-1.9136,-1.9135,-1.9194,-1.9136,-1.9136,-1.9136,-1.9135,0,-1.9317,-1.9327,-1.929,-1.9294,-1.9302,-1.9273,-1.9282,-1.9268,-1.9252,-1.9251,-1.9222,-1.9222,-1.9189,-1.9184,-1.9164,-1.9166,-1.9164,-1.9153,-1.9147,-1.9154,-1.9155,-1.915,-1.9146,-1.9137,-1.9137,-1.9136,-1.9136,0,-1.9378,-1.9354,-1.9359,-1.9333,-1.9326,-1.9333,-1.931,-1.9311,-1.9293,-1.9292,-1.929,-1.9261,-1.9254,-1.9228,-1.9214,-1.92,-1.9208,-1.9198,-1.9213,-1.9209,-1.9223,-1.9222,-1.9279,-1.9284,-1.9225,-1.9226,-1.9226,0,-1.9411,-1.9417,-1.9391,-1.9388,-1.9378,-1.9375,-1.9369,-1.934,-1.9335,-1.9315,-1.9319,-1.9309,-1.9299,-1.9288,-1.9265,-1.9254,-1.9242,-1.9263,-1.9241,-1.9247,-1.924,-1.9239,-1.9238,-1.9268,-1.9269,-1.927,-1.927,0,-1.9471,-1.9458,-1.9451,-1.944,-1.9434,-1.9423,-1.9411,-1.941,-1.9378,-1.9373,-1.9365,-1.9358,-1.9343,-1.9332,-1.9317,-1.9303,-1.928,-1.9277,-1.9279,-1.9286,-1.9294,-1.9287,-1.9224,-1.9276,-1.9275,-1.9275,-1.9275,-1.9274,-1.9517,-1.9519,-1.95,-1.9493,-1.9481,-1.9469,-1.9469,-1.945,-1.9442,-1.9428,-1.9411,-1.9404,-1.9385,-1.9361,-1.9349,-1.9342,-1.933,-1.9334,-1.9334,-1.9335,-1.9338,-1.9296,-1.934,-1.9339,-1.9339,-1.9339,-1.9339,0,-1.9573,-1.9558,-1.9552,-1.9535,-1.9529,-1.9508,-1.9493,-1.9488,-1.9483,-1.9467,-1.9457,-1.9446,-1.9435,-1.9411,-1.9397,-1.9396,-1.9385,-1.9393,-1.9392,-1.9389,-1.9351,-1.9349,-1.9402,-1.9402,-1.9402,-1.9402,-1.9402,-1.9402,-1.9601,-1.9603,-1.9588,-1.9583,-1.9568,-1.9561,-1.9554,-1.9542,-1.9529,-1.9518,-1.9508,-1.9492,-1.9472,-1.9456,-1.9444,-1.9437,-1.9432,-1.9444,-1.9433,-1.9398,-1.9392,-1.9386,-1.9384,-1.9443,-1.9443,-1.9471,-1.9471,-1.9471]}]]